Regional Weather Roundup
Issued by NWS Lake Charles, LA

Home | Current Version | Previous Version | Text Only | Print | Product List | Glossary On
Versions: 1 2 3 4 5 6 7 8 9 10 11 12 13 14 15 16 17 18 19 20 21 22 23 24 25 26 27 28 29 30 31 32 33 34 35 36 37 38 39 40 41 42 43 44 45 46 47 48 49 50
000
ASUS44 KLCH 310310
RWRLCH
RWRLCH
REGIONAL WEATHER ROUNDUP
NATIONAL WEATHER SERVICE LAKE CHARLES LA
1000 PM CDT SUN AUG 30 2015

Note: "fair" indicates few or no clouds below 12,000 feet with no
significant weather and/or obstructions to visibility.


ACROSS SOUTHEAST TEXAS

CITY           SKY/WX    TMP DP  RH WIND       PRES   REMARKS
BEAUMONT       CLEAR     73  70  90 SW3       29.99R
BEAUMONT CITY    N/A     73  69  88 CALM      30.01R
ORANGE         CLEAR    N/A N/A N/A CALM      30.02R
JASPER         PTCLDY    75  72  89 CALM      30.02S
$$

ACROSS CENTRAL LOUISIANA

CITY           SKY/WX    TMP DP  RH WIND       PRES   REMARKS
LEESVILLE      MOCLDY    78  68  72 S3        30.00R
FULLERTON        N/A     73  65  75 CALM      29.99R
ALEXANDRIA INT PTCLDY    74  67  78 CALM      29.99R
ESLER FIELD    MOCLDY    74  66  76 CALM      30.01R
DERIDDER       MOCLDY    75  69  79 CALM      30.02R
OAKDALE          N/A     69  68  95 CALM      30.01R FOG
OPELOUSAS        N/A     78  71  79 S3        30.01R
$$

ACROSS SOUTHWEST AND SOUTH CENTRAL LOUISIANA

CITY           SKY/WX    TMP DP  RH WIND       PRES   REMARKS
SULPHUR        PTCLDY    75  72  91 CALM      30.01R
LAKE CHARLES   PTCLDY    76  70  82 S3        30.00R
CHENNAULT INT  CLEAR     73  70  88 S5        30.01
CAMERON PHI    CLEAR     81  68  65 SW6       30.03R
DEQUINCY         N/A     71  71 100 CALM      30.01R
JENNINGS         N/A     76  70  80 CALM      30.01R
LAFAYETTE      CLEAR     79  73  82 CALM      30.01R
NEW IBERIA     CLEAR     77  72  84 CALM      30.02R
ABBEVILLE        N/A     73  72  94 CALM      30.01R
PATTERSON      CLEAR     75  70  83 CALM      30.03R
SALT POINT       N/A     82  74  76 CALM      29.99R
$$

SELECTED SITES ACROSS THE REGION

CITY           SKY/WX    TMP DP  RH WIND       PRES   REMARKS
HOUSTON BUSH   MOCLDY    77  69  76 S3        29.99R
HOUSTON HOBBY  MOCLDY    79  69  71 SE3       29.98R
GALVESTON      CLEAR     82  69  64 S8        30.00R
COLLEGE STAT     N/A     80  67  64 SE3       29.98R
CONROE         CLEAR     73  68  84 CALM      30.00R
HUNTSVILLE     PTCLDY    76  65  68 CALM      29.99R
LUFKIN         PTCLDY    75  65  70 CALM      29.99R
SHREVEPORT     PTCLDY    79  67  66 CALM      29.98R
MONROE         CLEAR     79  65  62 S5        29.99R
NATCHEZ MS     CLEAR     73  64  73 CALM      30.02R
BATON ROUGE    CLEAR     76  69  79 CALM      30.01R
N.O. INTL ARPT PTCLDY    81  68  64 SW8       30.01R
SLIDELL        CLEAR     75  71  87 CALM      30.01R
$$

MARINE REPORTS

STATION/POSITION TIME  TEMP    WIND        PRES    VSBY  WAVE
                       AIR SEA DIR/SP/G                  HT/PER
                 (UTC) (F)     (DEG/KT/KT) (MB)    (MI)  (FT/S)
BUOY 30 S HIGH I 0250   84 86  150/  8/ 10 1015.3R         1/ 6
SEA RIM ST PARK  0300   82     190/  5/  5 1016.5R
PORT ARTHUR      NOT AVBL
SABINE PASS N    NOT AVBL
TEXAS POINT      NOT AVBL
CALCASIEU PASS   NOT AVBL
LK CHARLES BEACH NOT AVBL
MARSH ISLAND     0200   85     180/ 10/ 12   N/A           0
FRESH WATER LOCK NOT AVBL
AMERADA PASS     NOT AVBL
$$


USA.gov is the U.S. government's official web portal to all federal, state and local government web resources and services.